CEB588 RPVM-RPLL

Flight info

Callsign CEB588
Flight time 0h 56m
Altitude 34000
Route PARAO4P PARAO DCT ROX DCT LAIYA LAIYA3R
Aircraft A320/L-V/N

Departure

Time 2026-05-07 15:12
Airport Mactan Cebu International Airport (RPVM)

Arrival

Time 2026-05-07 16:08
Airport Ninoy Aquino International Airport (RPLL)
Time Latitude Longitude Altitude Speed Heading
2026-05-07 14:57 0.00000 0.00000 0 ft 0 kts
2026-05-07 14:57 10.31555 123.97973 37 ft 0 kts 315°
2026-05-07 15:02 10.31546 123.97981 37 ft 2 kts 314°
2026-05-07 15:02 10.31535 123.97993 37 ft 2 kts 315°
2026-05-07 15:02 10.31524 123.98003 37 ft 2 kts 315°
2026-05-07 15:03 10.31514 123.98013 37 ft 0 kts 315°
2026-05-07 15:03 10.31507 123.98022 37 ft 2 kts 292°
2026-05-07 15:03 10.31505 123.98036 37 ft 2 kts 260°
2026-05-07 15:03 10.31510 123.98049 37 ft 0 kts 230°
2026-05-07 15:04 10.31515 123.98054 37 ft 1 kts 223°
2026-05-07 15:04 10.31516 123.98055 37 ft 0 kts 225°
2026-05-07 15:05 10.31513 123.98052 37 ft 1 kts 225°
2026-05-07 15:05 10.31499 123.98038 37 ft 4 kts 226°
2026-05-07 15:06 10.31473 123.98010 37 ft 6 kts 226°
2026-05-07 15:06 10.31434 123.97970 37 ft 8 kts 226°
2026-05-07 15:06 10.31386 123.97920 37 ft 9 kts 225°
2026-05-07 15:06 10.31322 123.97903 37 ft 10 kts 157°
2026-05-07 15:07 10.31265 123.97958 37 ft 13 kts 135°
2026-05-07 15:07 10.31211 123.97978 37 ft 8 kts 202°
2026-05-07 15:07 10.31156 123.97935 37 ft 11 kts 225°
2026-05-07 15:07 10.31096 123.97875 37 ft 13 kts 225°
2026-05-07 15:08 10.31026 123.97806 37 ft 14 kts 225°
2026-05-07 15:08 10.30950 123.97729 37 ft 16 kts 225°
2026-05-07 15:08 10.30867 123.97646 37 ft 17 kts 224°
2026-05-07 15:08 10.30777 123.97555 37 ft 18 kts 225°
2026-05-07 15:09 10.30684 123.97463 37 ft 19 kts 225°
2026-05-07 15:09 10.30587 123.97366 37 ft 19 kts 225°
2026-05-07 15:09 10.30485 123.97264 37 ft 20 kts 224°
2026-05-07 15:09 10.29922 123.96709 37 ft 13 kts 210°
2026-05-07 15:10 10.29845 123.96742 37 ft 13 kts 130°
2026-05-07 15:10 10.29777 123.96815 37 ft 14 kts 134°
2026-05-07 15:10 10.29720 123.96874 37 ft 7 kts 120°
2026-05-07 15:10 10.29731 123.96915 37 ft 0 kts 45°
2026-05-07 15:11 10.29744 123.96928 37 ft 9 kts 45°
2026-05-07 15:11 10.29965 123.97150 37 ft 82 kts 44°
2026-05-07 15:11 10.30526 123.97713 38 ft 143 kts 44°
2026-05-07 15:12 10.31285 123.98477 441 ft 156 kts 45°
2026-05-07 15:12 10.32044 123.99254 1122 ft 158 kts 47°
2026-05-07 15:12 10.32839 124.00047 1719 ft 167 kts 48°
2026-05-07 15:12 10.33813 124.00777 2109 ft 189 kts 21°
2026-05-07 15:13 10.35203 124.00660 2564 ft 220 kts 336°
2026-05-07 15:13 10.36395 123.99641 3271 ft 232 kts 317°
2026-05-07 15:13 10.37464 123.98380 3970 ft 239 kts 314°
2026-05-07 15:13 10.38535 123.97096 4735 ft 242 kts 315°
2026-05-07 15:14 10.39283 123.96230 5262 ft 244 kts 316°
2026-05-07 15:14 10.40800 123.94541 6288 ft 248 kts 317°
2026-05-07 15:14 10.41986 123.93261 7079 ft 250 kts 317°
2026-05-07 15:14 10.43197 123.91974 7863 ft 253 kts 318°
2026-05-07 15:15 10.44404 123.90703 8630 ft 256 kts 318°
2026-05-07 15:15 10.45654 123.89390 9394 ft 258 kts 318°
2026-05-07 15:15 10.46888 123.88098 10140 ft 260 kts 318°
2026-05-07 15:15 10.48147 123.86782 10893 ft 262 kts 318°
2026-05-07 15:16 10.48575 123.86334 11140 ft 263 kts 318°
2026-05-07 15:16 10.50280 123.84552 12080 ft 267 kts 318°
2026-05-07 15:16 10.52869 123.81847 13465 ft 271 kts 318°
2026-05-07 15:17 10.53742 123.80934 13917 ft 272 kts 318°
2026-05-07 15:17 10.55952 123.78624 15033 ft 276 kts 318°
2026-05-07 15:17 10.57303 123.77211 15691 ft 277 kts 318°
2026-05-07 15:17 10.58641 123.75810 16326 ft 279 kts 318°
2026-05-07 15:18 10.59990 123.74398 16939 ft 281 kts 318°
2026-05-07 15:18 10.61341 123.72987 17528 ft 283 kts 318°
2026-05-07 15:18 10.62732 123.71532 18121 ft 285 kts 318°
2026-05-07 15:18 10.64115 123.70087 18685 ft 288 kts 318°
2026-05-07 15:19 10.65512 123.68626 19230 ft 292 kts 318°
2026-05-07 15:19 10.66939 123.67132 19764 ft 295 kts 318°
2026-05-07 15:19 10.68362 123.65643 20281 ft 299 kts 318°
2026-05-07 15:19 10.69822 123.64117 20801 ft 302 kts 317°
2026-05-07 15:20 10.71289 123.62580 21309 ft 306 kts 317°
2026-05-07 15:20 10.72792 123.61006 21811 ft 309 kts 317°
2026-05-07 15:20 10.74287 123.59440 22298 ft 313 kts 317°
2026-05-07 15:20 10.75804 123.57850 22815 ft 316 kts 316°
2026-05-07 15:21 10.77332 123.56250 23343 ft 318 kts 316°
2026-05-07 15:21 10.78873 123.54635 23864 ft 320 kts 316°
2026-05-07 15:21 10.80443 123.52987 24389 ft 322 kts 316°
2026-05-07 15:21 10.81990 123.51363 24897 ft 324 kts 315°
2026-05-07 15:22 10.83560 123.49716 25406 ft 327 kts 315°
2026-05-07 15:22 10.85159 123.48038 25915 ft 329 kts 315°
2026-05-07 15:22 10.86759 123.46355 26406 ft 331 kts 315°
2026-05-07 15:22 10.88364 123.44672 26879 ft 333 kts 314°
2026-05-07 15:23 10.89438 123.43546 27187 ft 335 kts 314°
2026-05-07 15:23 10.91589 123.41289 27796 ft 338 kts 314°
2026-05-07 15:23 10.93273 123.39612 28249 ft 340 kts 316°
2026-05-07 15:23 10.95013 123.37943 28699 ft 343 kts 316°
2026-05-07 15:24 10.96757 123.36273 29124 ft 345 kts 316°
2026-05-07 15:24 10.98505 123.34597 29522 ft 348 kts 315°
2026-05-07 15:24 11.00264 123.32898 29922 ft 351 kts 315°
2026-05-07 15:24 11.02054 123.31163 30322 ft 354 kts 315°
2026-05-07 15:25 11.03838 123.29439 30696 ft 358 kts 315°
2026-05-07 15:25 11.05653 123.27689 31069 ft 361 kts 315°
2026-05-07 15:25 11.07489 123.25919 31429 ft 364 kts 315°
2026-05-07 15:25 11.09335 123.24143 31776 ft 367 kts 315°
2026-05-07 15:26 11.11178 123.22369 32120 ft 370 kts 315°
2026-05-07 15:26 11.13063 123.20569 32463 ft 372 kts 315°
2026-05-07 15:26 11.14962 123.18754 32848 ft 375 kts 315°
2026-05-07 15:26 11.16853 123.16939 33218 ft 377 kts 315°
2026-05-07 15:27 11.18777 123.15089 33584 ft 380 kts 315°
2026-05-07 15:27 11.20713 123.13226 33830 ft 386 kts 315°
2026-05-07 15:27 11.22684 123.11326 33836 ft 397 kts 315°
2026-05-07 15:27 11.24729 123.09354 33843 ft 408 kts 315°
2026-05-07 15:28 11.26830 123.07330 33843 ft 419 kts 315°
2026-05-07 15:28 11.28956 123.05280 33845 ft 428 kts 315°
2026-05-07 15:28 11.33311 123.01083 33845 ft 431 kts 314°
2026-05-07 15:29 11.37677 122.96870 33849 ft 432 kts 314°
2026-05-07 15:29 11.42025 122.92669 33850 ft 432 kts 314°
2026-05-07 15:30 11.46399 122.88472 33855 ft 431 kts 313°
2026-05-07 15:30 11.50717 122.84251 33853 ft 431 kts 314°
2026-05-07 15:31 11.55055 122.80042 33852 ft 431 kts 314°
2026-05-07 15:31 11.59501 122.75951 33853 ft 432 kts 319°
2026-05-07 15:32 11.64381 122.72332 33855 ft 433 kts 323°
2026-05-07 15:32 11.69389 122.68924 33853 ft 433 kts 324°
2026-05-07 15:33 11.74437 122.65488 33853 ft 434 kts 324°
2026-05-07 15:33 11.79457 122.62061 33853 ft 434 kts 324°
2026-05-07 15:34 11.84472 122.58632 33853 ft 433 kts 323°
2026-05-07 15:34 11.88657 122.55769 33856 ft 433 kts 323°
2026-05-07 15:35 11.94471 122.51789 33857 ft 433 kts 323°
2026-05-07 15:35 11.99484 122.48355 33857 ft 433 kts 323°
2026-05-07 15:36 12.04505 122.44913 33858 ft 433 kts 323°
2026-05-07 15:36 12.09493 122.41494 33860 ft 433 kts 323°
2026-05-07 15:37 12.14520 122.38062 33860 ft 434 kts 324°
2026-05-07 15:37 12.19548 122.34627 33859 ft 434 kts 323°
2026-05-07 15:38 12.24558 122.31168 33856 ft 433 kts 323°
2026-05-07 15:38 12.29567 122.27711 33851 ft 433 kts 323°
2026-05-07 15:39 12.34554 122.24278 33844 ft 433 kts 323°
2026-05-07 15:39 12.39556 122.20837 33841 ft 433 kts 323°
2026-05-07 15:40 12.44570 122.17387 33841 ft 434 kts 323°
2026-05-07 15:40 12.49585 122.13937 33840 ft 434 kts 323°
2026-05-07 15:41 12.52095 122.12209 33674 ft 436 kts 323°
2026-05-07 15:41 12.54617 122.10473 33387 ft 433 kts 323°
2026-05-07 15:41 12.57105 122.08759 33103 ft 430 kts 323°
2026-05-07 15:41 12.59588 122.07049 32816 ft 428 kts 323°
2026-05-07 15:42 12.62043 122.05356 32534 ft 427 kts 323°
2026-05-07 15:42 12.64514 122.03652 32282 ft 427 kts 323°
2026-05-07 15:42 12.66967 122.01959 32038 ft 428 kts 323°
2026-05-07 15:42 12.68629 122.00812 31875 ft 428 kts 323°
2026-05-07 15:43 12.71928 121.98537 31551 ft 428 kts 323°
2026-05-07 15:43 12.74391 121.96837 31311 ft 428 kts 324°
2026-05-07 15:43 12.76849 121.95140 31071 ft 428 kts 324°
2026-05-07 15:43 12.79326 121.93431 30829 ft 428 kts 324°
2026-05-07 15:44 12.81819 121.91709 30586 ft 428 kts 324°
2026-05-07 15:44 12.84262 121.90022 30349 ft 428 kts 324°
2026-05-07 15:44 12.85914 121.88879 30188 ft 428 kts 324°
2026-05-07 15:44 12.89225 121.86592 29864 ft 428 kts 324°
2026-05-07 15:45 12.91678 121.84898 29625 ft 428 kts 324°
2026-05-07 15:45 12.94145 121.83192 29388 ft 428 kts 324°
2026-05-07 15:45 12.96632 121.81471 29144 ft 428 kts 325°
2026-05-07 15:45 12.99103 121.79763 28905 ft 425 kts 325°
2026-05-07 15:46 13.03954 121.76408 28395 ft 421 kts 325°
2026-05-07 15:46 13.06410 121.74709 28133 ft 419 kts 325°
2026-05-07 15:46 13.08791 121.73062 27829 ft 417 kts 325°
2026-05-07 15:47 13.11222 121.71381 27427 ft 415 kts 326°
2026-05-07 15:47 13.13591 121.69750 26996 ft 411 kts 326°
2026-05-07 15:47 13.15968 121.68111 26564 ft 408 kts 326°
2026-05-07 15:47 13.18316 121.66489 26108 ft 405 kts 326°
2026-05-07 15:48 13.20628 121.64891 25638 ft 402 kts 326°
2026-05-07 15:48 13.22964 121.63272 25164 ft 399 kts 326°
2026-05-07 15:48 13.25262 121.61680 24691 ft 397 kts 326°
2026-05-07 15:48 13.27526 121.60110 24225 ft 394 kts 326°
2026-05-07 15:49 13.29785 121.58544 23758 ft 392 kts 327°
2026-05-07 15:49 13.31289 121.57501 23449 ft 391 kts 327°
2026-05-07 15:49 13.34282 121.55424 22835 ft 388 kts 327°
2026-05-07 15:49 13.36507 121.53879 22373 ft 386 kts 327°
2026-05-07 15:50 13.38725 121.52339 21914 ft 385 kts 327°
2026-05-07 15:50 13.40965 121.50783 21454 ft 383 kts 327°
2026-05-07 15:50 13.43156 121.49261 21007 ft 381 kts 327°
2026-05-07 15:50 13.45348 121.47736 20566 ft 379 kts 327°
2026-05-07 15:51 13.47529 121.46220 20129 ft 376 kts 327°
2026-05-07 15:51 13.49692 121.44713 19694 ft 374 kts 327°
2026-05-07 15:51 13.51826 121.43228 19271 ft 371 kts 327°
2026-05-07 15:51 13.53966 121.41739 18840 ft 369 kts 327°
2026-05-07 15:52 13.65310 121.33794 16783 ft 365 kts 325°
2026-05-07 15:52 13.67334 121.32207 16235 ft 367 kts 323°
2026-05-07 15:52 13.69357 121.30590 15699 ft 367 kts 323°
2026-05-07 15:52 13.71392 121.28999 15187 ft 366 kts 324°
2026-05-07 15:53 13.73428 121.27438 14712 ft 364 kts 324°
2026-05-07 15:53 13.75464 121.25897 14244 ft 362 kts 325°
2026-05-07 15:53 13.77507 121.24361 13775 ft 360 kts 325°
2026-05-07 15:53 13.79533 121.22843 13328 ft 357 kts 325°
2026-05-07 15:54 13.81544 121.21339 12886 ft 355 kts 325°
2026-05-07 15:54 13.83513 121.19866 12463 ft 352 kts 326°
2026-05-07 15:54 13.85504 121.18378 12046 ft 349 kts 326°
2026-05-07 15:54 13.87458 121.16920 11636 ft 345 kts 326°
2026-05-07 15:55 13.89406 121.15463 11218 ft 343 kts 326°
2026-05-07 15:55 13.91330 121.14027 10810 ft 340 kts 326°
2026-05-07 15:55 13.93219 121.12614 10409 ft 337 kts 326°
2026-05-07 15:55 13.95131 121.11183 10098 ft 330 kts 326°
2026-05-07 15:56 13.96932 121.09837 10024 ft 315 kts 327°
2026-05-07 15:56 13.98686 121.08522 9782 ft 307 kts 327°
2026-05-07 15:56 13.99840 121.07660 9536 ft 305 kts 327°
2026-05-07 15:56 14.01538 121.06391 9202 ft 302 kts 327°
2026-05-07 15:57 14.03820 121.04688 8747 ft 298 kts 327°
2026-05-07 15:57 14.05481 121.03447 8432 ft 294 kts 327°
2026-05-07 15:57 14.06582 121.02625 8212 ft 292 kts 327°
2026-05-07 15:57 14.08763 121.00993 7778 ft 289 kts 327°
2026-05-07 15:58 14.10393 120.99773 7450 ft 286 kts 327°
2026-05-07 15:58 14.12005 120.98574 7136 ft 283 kts 327°
2026-05-07 15:58 14.13600 120.97388 6820 ft 280 kts 327°
2026-05-07 15:58 14.15165 120.96220 6536 ft 276 kts 327°
2026-05-07 15:59 14.16707 120.95067 6507 ft 268 kts 328°
2026-05-07 15:59 14.18238 120.94057 6355 ft 262 kts 333°
2026-05-07 15:59 14.19823 120.93109 6069 ft 261 kts 334°
2026-05-07 15:59 14.21392 120.92188 5790 ft 258 kts 334°
2026-05-07 16:00 14.22955 120.91268 5498 ft 255 kts 334°
2026-05-07 16:00 14.24476 120.90372 5227 ft 251 kts 334°
2026-05-07 16:00 14.25985 120.89481 5005 ft 245 kts 333°
2026-05-07 16:00 14.27425 120.88627 4964 ft 231 kts 333°
2026-05-07 16:01 14.28829 120.87804 4783 ft 227 kts 334°
2026-05-07 16:01 14.30202 120.87013 4555 ft 224 kts 334°
2026-05-07 16:01 14.31557 120.86231 4327 ft 221 kts 334°
2026-05-07 16:01 14.32888 120.85462 4092 ft 218 kts 334°
2026-05-07 16:02 14.34216 120.84694 3861 ft 215 kts 334°
2026-05-07 16:02 14.36989 120.83089 3382 ft 212 kts 334°
2026-05-07 16:02 14.38288 120.82493 3376 ft 189 kts 353°
2026-05-07 16:02 14.39498 120.82617 3361 ft 163 kts 30°
2026-05-07 16:03 14.40305 120.83306 3335 ft 142 kts 52°
2026-05-07 16:03 14.41560 120.85163 3334 ft 140 kts 59°
2026-05-07 16:03 14.42065 120.86037 3186 ft 142 kts 62°
2026-05-07 16:03 14.42548 120.86934 2846 ft 146 kts 62°
2026-05-07 16:04 14.43037 120.87840 2616 ft 141 kts 62°
2026-05-07 16:04 14.43507 120.88703 2426 ft 138 kts 61°
2026-05-07 16:04 14.43985 120.89571 2252 ft 138 kts 61°
2026-05-07 16:04 14.44464 120.90434 2078 ft 138 kts 61°
2026-05-07 16:05 14.44938 120.91288 1952 ft 135 kts 61°
2026-05-07 16:05 14.45403 120.92123 1760 ft 132 kts 62°
2026-05-07 16:05 14.45855 120.92938 1579 ft 131 kts 60°
2026-05-07 16:05 14.46155 120.93475 1456 ft 127 kts 62°
2026-05-07 16:06 14.46735 120.94520 1237 ft 126 kts 62°
2026-05-07 16:06 14.47182 120.95325 1088 ft 130 kts 62°
2026-05-07 16:06 14.47631 120.96130 930 ft 130 kts 63°
2026-05-07 16:06 14.48079 120.96935 763 ft 130 kts 63°
2026-05-07 16:07 14.48531 120.97750 604 ft 129 kts 62°
2026-05-07 16:07 14.48988 120.98554 426 ft 128 kts 63°
2026-05-07 16:07 14.49424 120.99357 270 ft 129 kts 62°
2026-05-07 16:07 14.49871 121.00159 109 ft 128 kts 63°
2026-05-07 16:08 14.50278 121.00900 82 ft 98 kts 60°
2026-05-07 16:08 14.50530 121.01356 82 ft 55 kts 60°
2026-05-07 16:08 14.50667 121.01600 82 ft 23 kts 58°
2026-05-07 16:08 14.50775 121.01718 82 ft 22 kts 43°
2026-05-07 16:09 14.50864 121.01786 82 ft 11 kts
2026-05-07 16:09 14.50925 121.01781 82 ft 7 kts 26°
2026-05-07 16:09 14.50957 121.01831 82 ft 9 kts 64°